Location: Knowlton
(51.2333°N, 1.2667°E)
Time: 10:08:34
(UTC+00:00)

Cosmos 389 Rocket - Pass Details

Date: 18 April 2021
Orbit: 441 x 472 km, 81.1° (Epoch: 16 May)

Event Time Altitude Azimuth Distance (km) Brightness Sun altitude
Exits shadow 20:00:15 12° 147° (SSE) 1,499 4.5 -9.8°
Maximum altitude 20:02:54 26° 92° (E) 958 3.6 -10.2°
Drops below altitude 10° 20:05:54 10° 35° (NE) 1,635 5.2 -10.6°
Sets 20:08:14 0° 23° (NNE) 2,523 6.3 -10.9°
